DLH8RP EDDF-LYTV

Flight info

Callsign DLH8RP
Flight time 1h 40m
Altitude 37000
Route CINDY8S/18 CINDY Z74 LAMPU DCT NOMBO Y161 MAH DCT VAVOR DCT RADIZ DCT GIMIX DCT SABAD DCT NERRA DCT TAZ
Aircraft A319/M-SDE2E3FGIJ1LORWXYZ/HB1

Departure

Time 2026-05-09 12:25
Airport Frankfurt Main Airport (EDDF)

Arrival

Time 2026-05-09 14:05
Airport Tivat Airport (LYTV)
Time Latitude Longitude Altitude Speed Heading
2026-05-09 11:41 50.04451 8.56432 362 ft 0 kts 155°
2026-05-09 12:12 50.04454 8.56430 356 ft 3 kts 155°
2026-05-09 12:12 50.04478 8.56412 361 ft 4 kts 155°
2026-05-09 12:12 50.04499 8.56396 358 ft 4 kts 158°
2026-05-09 12:13 50.04517 8.56392 362 ft 4 kts 236°
2026-05-09 12:13 50.04527 8.56429 357 ft 3 kts 250°
2026-05-09 12:13 50.04522 8.56411 358 ft 4 kts 250°
2026-05-09 12:13 50.04513 8.56374 359 ft 2 kts 250°
2026-05-09 12:14 50.04513 8.56372 363 ft 0 kts 250°
2026-05-09 12:16 50.04512 8.56371 363 ft 1 kts 250°
2026-05-09 12:16 50.04501 8.56322 356 ft 7 kts 250°
2026-05-09 12:16 50.04485 8.56251 363 ft 8 kts 249°
2026-05-09 12:17 50.04465 8.56170 358 ft 8 kts 249°
2026-05-09 12:17 50.04443 8.56081 356 ft 9 kts 249°
2026-05-09 12:17 50.04395 8.56030 356 ft 9 kts 174°
2026-05-09 12:17 50.04333 8.56062 360 ft 10 kts 159°
2026-05-09 12:18 50.04265 8.56042 360 ft 12 kts 229°
2026-05-09 12:18 50.04235 8.55918 360 ft 13 kts 250°
2026-05-09 12:18 50.04201 8.55779 353 ft 15 kts 250°
2026-05-09 12:18 50.04163 8.55624 356 ft 16 kts 249°
2026-05-09 12:19 50.04123 8.55454 358 ft 17 kts 250°
2026-05-09 12:19 50.04082 8.55280 353 ft 17 kts 249°
2026-05-09 12:19 50.04041 8.55108 354 ft 17 kts 249°
2026-05-09 12:19 50.03996 8.54927 357 ft 19 kts 250°
2026-05-09 12:20 50.03949 8.54726 357 ft 21 kts 250°
2026-05-09 12:20 50.03897 8.54507 348 ft 23 kts 250°
2026-05-09 12:20 50.03822 8.54285 350 ft 24 kts 234°
2026-05-09 12:20 50.03757 8.54041 348 ft 25 kts 250°
2026-05-09 12:21 50.03695 8.53780 343 ft 26 kts 250°
2026-05-09 12:21 50.03627 8.53514 340 ft 27 kts 248°
2026-05-09 12:21 50.03560 8.53232 338 ft 28 kts 249°
2026-05-09 12:21 50.03493 8.52960 337 ft 24 kts 249°
2026-05-09 12:22 50.03446 8.52785 333 ft 11 kts 248°
2026-05-09 12:22 50.03431 8.52721 334 ft 0 kts 249°
2026-05-09 12:22 50.03427 8.52706 332 ft 6 kts 249°
2026-05-09 12:23 50.03401 8.52619 333 ft 10 kts 233°
2026-05-09 12:23 50.03346 8.52593 336 ft 6 kts 173°
2026-05-09 12:23 50.03317 8.52595 336 ft 0 kts 179°
2026-05-09 12:24 50.03305 8.52595 336 ft 14 kts 179°
2026-05-09 12:24 50.02899 8.52599 332 ft 99 kts 179°
2026-05-09 12:25 50.01987 8.52611 359 ft 158 kts 177°
2026-05-09 12:25 50.00876 8.52607 996 ft 160 kts 176°
2026-05-09 12:25 49.99755 8.52616 1782 ft 166 kts 179°
2026-05-09 12:25 49.98520 8.52622 2289 ft 188 kts 179°
2026-05-09 12:26 49.97154 8.52899 2669 ft 211 kts 157°
2026-05-09 12:26 49.96003 8.54432 3197 ft 228 kts 121°
2026-05-09 12:26 49.95231 8.56609 3812 ft 231 kts 119°
2026-05-09 12:26 49.94456 8.58808 4115 ft 236 kts 116°
2026-05-09 12:27 49.94046 8.61289 5033 ft 246 kts 96°
2026-05-09 12:27 49.93900 8.64060 5658 ft 267 kts 95°
2026-05-09 12:27 49.93682 8.66969 6585 ft 276 kts 104°
2026-05-09 12:27 49.92922 8.69718 7507 ft 281 kts 124°
2026-05-09 12:28 49.91599 8.71944 8479 ft 283 kts 144°
2026-05-09 12:28 49.89979 8.73723 9460 ft 287 kts 147°
2026-05-09 12:28 49.88497 8.75794 10356 ft 296 kts 133°
2026-05-09 12:28 49.87305 8.78510 10895 ft 318 kts 121°
2026-05-09 12:29 49.86195 8.81575 11067 ft 331 kts 120°
2026-05-09 12:29 49.85072 8.84714 11111 ft 334 kts 120°
2026-05-09 12:29 49.83946 8.87867 11112 ft 335 kts 120°
2026-05-09 12:29 49.82817 8.91018 11113 ft 335 kts 120°
2026-05-09 12:30 49.81681 8.94166 11109 ft 335 kts 121°
2026-05-09 12:30 49.80538 8.97308 11111 ft 335 kts 121°
2026-05-09 12:30 49.78235 9.03604 11435 ft 343 kts 121°
2026-05-09 12:31 49.77064 9.06805 12482 ft 342 kts 120°
2026-05-09 12:31 49.75457 9.13800 14223 ft 351 kts 104°
2026-05-09 12:31 49.74708 9.17409 14981 ft 355 kts 114°
2026-05-09 12:32 49.73493 9.20738 15766 ft 357 kts 127°
2026-05-09 12:32 49.71896 9.23698 16543 ft 360 kts 132°
2026-05-09 12:32 49.70236 9.26610 17338 ft 363 kts 132°
2026-05-09 12:32 49.68566 9.29550 18133 ft 365 kts 132°
2026-05-09 12:33 49.66884 9.32517 18804 ft 369 kts 132°
2026-05-09 12:33 49.65185 9.35512 19460 ft 373 kts 131°
2026-05-09 12:33 49.63469 9.38538 20076 ft 378 kts 131°
2026-05-09 12:33 49.61582 9.41394 20707 ft 382 kts 141°
2026-05-09 12:34 49.59377 9.43701 21315 ft 386 kts 149°
2026-05-09 12:34 49.57051 9.45819 21918 ft 391 kts 149°
2026-05-09 12:34 49.54700 9.47965 22528 ft 395 kts 149°
2026-05-09 12:34 49.52327 9.50137 23167 ft 399 kts 149°
2026-05-09 12:35 49.49934 9.52327 23766 ft 402 kts 149°
2026-05-09 12:35 49.47514 9.54537 24268 ft 406 kts 149°
2026-05-09 12:35 49.45069 9.56761 24763 ft 410 kts 149°
2026-05-09 12:35 49.42604 9.59001 25251 ft 414 kts 149°
2026-05-09 12:36 49.40115 9.61256 25731 ft 417 kts 149°
2026-05-09 12:36 49.37604 9.63531 26201 ft 421 kts 149°
2026-05-09 12:36 49.35088 9.65865 26670 ft 424 kts 145°
2026-05-09 12:36 49.32778 9.68684 27115 ft 427 kts 135°
2026-05-09 12:37 49.30667 9.71907 27568 ft 430 kts 134°
2026-05-09 12:37 49.28551 9.75157 28022 ft 433 kts 134°
2026-05-09 12:37 49.26431 9.78406 28466 ft 436 kts 134°
2026-05-09 12:37 49.24264 9.81715 28923 ft 440 kts 134°
2026-05-09 12:38 49.22114 9.84988 29329 ft 444 kts 134°
2026-05-09 12:38 49.19898 9.88351 29761 ft 448 kts 134°
2026-05-09 12:38 49.17695 9.91686 30173 ft 451 kts 134°
2026-05-09 12:38 49.15458 9.95071 30531 ft 454 kts 134°
2026-05-09 12:39 49.13204 9.98478 30887 ft 457 kts 134°
2026-05-09 12:39 49.10939 10.01897 31072 ft 459 kts 134°
2026-05-09 12:39 49.08672 10.05316 31118 ft 459 kts 134°
2026-05-09 12:39 49.06392 10.08751 31423 ft 463 kts 135°
2026-05-09 12:40 49.04071 10.12177 31770 ft 465 kts 136°
2026-05-09 12:40 49.01712 10.15548 32245 ft 465 kts 137°
2026-05-09 12:40 48.99334 10.18880 32731 ft 465 kts 137°
2026-05-09 12:40 48.96945 10.22197 33171 ft 465 kts 137°
2026-05-09 12:41 48.94558 10.25511 33646 ft 465 kts 137°
2026-05-09 12:41 48.92177 10.28835 34126 ft 464 kts 137°
2026-05-09 12:41 48.89803 10.32167 34526 ft 464 kts 137°
2026-05-09 12:41 48.87439 10.35500 34913 ft 464 kts 137°
2026-05-09 12:42 48.85076 10.38835 35297 ft 463 kts 138°
2026-05-09 12:42 48.82722 10.42167 35651 ft 463 kts 137°
2026-05-09 12:42 48.80425 10.45595 35980 ft 464 kts 136°
2026-05-09 12:42 48.78194 10.49126 36311 ft 464 kts 134°
2026-05-09 12:43 48.76004 10.52715 36660 ft 464 kts 134°
2026-05-09 12:43 48.73825 10.56329 36935 ft 465 kts 134°
2026-05-09 12:43 48.71636 10.59937 37094 ft 465 kts 134°
2026-05-09 12:44 48.67255 10.67003 37111 ft 458 kts 135°
2026-05-09 12:44 48.62852 10.73947 37110 ft 457 kts 136°
2026-05-09 12:45 48.58453 10.80875 37107 ft 457 kts 135°
2026-05-09 12:45 48.54081 10.87846 37116 ft 458 kts 135°
2026-05-09 12:46 48.49718 10.94856 37087 ft 458 kts 135°
2026-05-09 12:46 48.45325 11.01813 37082 ft 458 kts 136°
2026-05-09 12:47 48.40885 11.08701 37081 ft 458 kts 136°
2026-05-09 12:47 48.36443 11.15570 37083 ft 458 kts 136°
2026-05-09 12:48 48.32000 11.22435 37087 ft 458 kts 136°
2026-05-09 12:48 48.27572 11.29315 37082 ft 459 kts 133°
2026-05-09 12:49 48.24011 11.37273 37077 ft 461 kts 121°
2026-05-09 12:49 48.20807 11.45609 37077 ft 461 kts 121°
2026-05-09 12:50 48.17609 11.53842 37080 ft 462 kts 121°
2026-05-09 12:50 48.14371 11.62132 37087 ft 462 kts 122°
2026-05-09 12:51 48.11126 11.70433 37093 ft 462 kts 122°
2026-05-09 12:51 48.07893 11.78722 37091 ft 461 kts 122°
2026-05-09 12:52 48.04654 11.87008 37077 ft 461 kts 122°
2026-05-09 12:52 48.01398 11.95263 37067 ft 462 kts 122°
2026-05-09 12:53 47.98133 12.03527 37065 ft 462 kts 122°
2026-05-09 12:53 47.94854 12.11780 37063 ft 462 kts 125°
2026-05-09 12:54 47.90665 12.18905 37067 ft 455 kts 143°
2026-05-09 12:54 47.85810 12.24968 37070 ft 455 kts 143°
2026-05-09 12:55 47.80967 12.31053 37065 ft 456 kts 143°
2026-05-09 12:55 47.76114 12.37122 37040 ft 456 kts 143°
2026-05-09 12:56 47.71248 12.43162 37053 ft 456 kts 143°
2026-05-09 12:56 47.66383 12.49200 37059 ft 456 kts 143°
2026-05-09 12:57 47.61503 12.55204 37066 ft 455 kts 145°
2026-05-09 12:57 47.57317 12.59915 37067 ft 454 kts 148°
2026-05-09 12:58 47.51348 12.66231 37038 ft 454 kts 149°
2026-05-09 12:58 47.46224 12.71684 37052 ft 454 kts 148°
2026-05-09 12:59 47.41957 12.76312 37061 ft 454 kts 148°
2026-05-09 12:59 47.36875 12.81838 37063 ft 454 kts 148°
2026-05-09 13:00 47.31786 12.87347 37069 ft 454 kts 148°
2026-05-09 13:00 47.26725 12.92797 37056 ft 454 kts 148°
2026-05-09 13:01 47.21628 12.98266 37067 ft 454 kts 148°
2026-05-09 13:01 47.16527 13.03724 37070 ft 453 kts 148°
2026-05-09 13:02 47.11436 13.09155 37070 ft 453 kts 148°
2026-05-09 13:02 47.06340 13.14588 37070 ft 453 kts 148°
2026-05-09 13:03 47.01248 13.20007 37047 ft 452 kts 148°
2026-05-09 13:03 46.96149 13.25415 37051 ft 453 kts 148°
2026-05-09 13:04 46.91044 13.30821 37056 ft 453 kts 148°
2026-05-09 13:04 46.85938 13.36215 37057 ft 453 kts 148°
2026-05-09 13:05 46.80829 13.41599 37055 ft 453 kts 148°
2026-05-09 13:05 46.75709 13.46968 37036 ft 454 kts 149°
2026-05-09 13:06 46.70578 13.52339 37033 ft 454 kts 149°
2026-05-09 13:06 46.65453 13.57700 37043 ft 454 kts 149°
2026-05-09 13:07 46.60316 13.63051 37050 ft 454 kts 149°
2026-05-09 13:07 46.55181 13.68398 37030 ft 454 kts 149°
2026-05-09 13:08 46.50051 13.73781 37041 ft 456 kts 148°
2026-05-09 13:08 46.45012 13.79397 37050 ft 458 kts 147°
2026-05-09 13:09 46.40002 13.85098 37057 ft 458 kts 147°
2026-05-09 13:09 46.34974 13.90738 37053 ft 456 kts 148°
2026-05-09 13:10 46.29927 13.96305 37029 ft 457 kts 148°
2026-05-09 13:10 46.24859 14.01880 37035 ft 459 kts 148°
2026-05-09 13:11 46.19817 14.07435 37032 ft 460 kts 148°
2026-05-09 13:11 46.14727 14.13041 37038 ft 460 kts 148°
2026-05-09 13:12 46.09627 14.18639 37042 ft 461 kts 148°
2026-05-09 13:12 46.04497 14.24241 37046 ft 467 kts 149°
2026-05-09 13:13 45.99314 14.29913 37049 ft 468 kts 148°
2026-05-09 13:13 45.94127 14.35583 37052 ft 468 kts 148°
2026-05-09 13:14 45.88931 14.41235 37063 ft 468 kts 148°
2026-05-09 13:16 45.68156 14.63679 37052 ft 467 kts 148°
2026-05-09 13:16 45.62957 14.69259 37061 ft 467 kts 148°
2026-05-09 13:17 45.57760 14.74822 37030 ft 467 kts 149°
2026-05-09 13:17 45.52548 14.80385 37029 ft 468 kts 149°
2026-05-09 13:18 45.47322 14.85951 37036 ft 469 kts 149°
2026-05-09 13:18 45.42113 14.91585 37044 ft 471 kts 148°
2026-05-09 13:19 45.36951 14.97322 37023 ft 471 kts 148°
2026-05-09 13:19 45.31782 15.03055 37030 ft 472 kts 148°
2026-05-09 13:20 45.26587 15.08753 37041 ft 472 kts 149°
2026-05-09 13:20 45.21419 15.14396 37041 ft 472 kts 148°
2026-05-09 13:21 45.16205 15.20076 37042 ft 473 kts 148°
2026-05-09 13:21 45.10986 15.25766 37034 ft 475 kts 148°
2026-05-09 13:22 45.05741 15.31471 37043 ft 476 kts 148°
2026-05-09 13:22 45.00494 15.37164 37050 ft 475 kts 149°
2026-05-09 13:23 44.87367 15.51314 37040 ft 475 kts 148°
2026-05-09 13:24 44.82115 15.56966 37048 ft 475 kts 149°
2026-05-09 13:24 44.76856 15.62606 37044 ft 475 kts 149°
2026-05-09 13:25 44.71590 15.68238 37063 ft 476 kts 148°
2026-05-09 13:26 44.63684 15.76691 37039 ft 476 kts 149°
2026-05-09 13:26 44.58400 15.82308 37046 ft 477 kts 149°
2026-05-09 13:27 44.53107 15.87912 37050 ft 477 kts 149°
2026-05-09 13:27 44.47814 15.93511 37053 ft 476 kts 149°
2026-05-09 13:28 44.42520 15.99102 37026 ft 477 kts 149°
2026-05-09 13:28 44.37226 16.04692 37036 ft 477 kts 149°
2026-05-09 13:29 44.31921 16.10266 37042 ft 478 kts 149°
2026-05-09 13:29 44.26612 16.15829 37040 ft 477 kts 149°
2026-05-09 13:30 44.21303 16.21387 37020 ft 477 kts 149°
2026-05-09 13:30 44.15988 16.26930 37028 ft 477 kts 149°
2026-05-09 13:31 44.10678 16.32458 37023 ft 477 kts 149°
2026-05-09 13:31 44.05365 16.37983 37034 ft 477 kts 149°
2026-05-09 13:32 44.00045 16.43499 37030 ft 477 kts 149°
2026-05-09 13:32 43.92095 16.51723 37023 ft 477 kts 149°
2026-05-09 13:33 43.86761 16.57219 37033 ft 478 kts 149°
2026-05-09 13:33 43.81423 16.62704 37032 ft 478 kts 149°
2026-05-09 13:34 43.76083 16.68181 37002 ft 478 kts 149°
2026-05-09 13:34 43.70744 16.73651 37023 ft 478 kts 149°
2026-05-09 13:35 43.65396 16.79122 37036 ft 478 kts 149°
2026-05-09 13:35 43.60041 16.84583 37041 ft 479 kts 149°
2026-05-09 13:36 43.54679 16.90036 37041 ft 479 kts 149°
2026-05-09 13:36 43.49310 16.95480 37047 ft 479 kts 149°
2026-05-09 13:37 43.43943 17.00914 37053 ft 479 kts 149°
2026-05-09 13:37 43.38569 17.06340 37053 ft 479 kts 149°
2026-05-09 13:38 43.33191 17.11750 37049 ft 479 kts 149°
2026-05-09 13:38 43.27803 17.17164 37036 ft 480 kts 149°
2026-05-09 13:39 43.22429 17.22569 37049 ft 479 kts 149°
2026-05-09 13:39 43.17046 17.27970 36956 ft 485 kts 149°
2026-05-09 13:40 43.14290 17.30714 36702 ft 492 kts 149°
2026-05-09 13:40 43.11515 17.33474 36441 ft 494 kts 149°
2026-05-09 13:40 43.08738 17.36238 36186 ft 493 kts 149°
2026-05-09 13:40 43.05972 17.38997 35918 ft 492 kts 149°
2026-05-09 13:41 43.03208 17.41750 35664 ft 491 kts 149°
2026-05-09 13:41 43.00449 17.44490 35416 ft 490 kts 149°
2026-05-09 13:41 42.97696 17.47224 35177 ft 489 kts 150°
2026-05-09 13:41 42.94945 17.49943 34865 ft 487 kts 150°
2026-05-09 13:42 42.92259 17.52772 34305 ft 490 kts 143°
2026-05-09 13:42 42.89868 17.56097 33775 ft 493 kts 133°
2026-05-09 13:42 42.87834 17.59872 33259 ft 493 kts 125°
2026-05-09 13:42 42.85953 17.63760 32746 ft 490 kts 126°
2026-05-09 13:43 42.84077 17.67608 32224 ft 486 kts 126°
2026-05-09 13:43 42.82206 17.71422 31746 ft 482 kts 126°
2026-05-09 13:43 42.80978 17.73928 31411 ft 480 kts 125°
2026-05-09 13:43 42.79133 17.77697 30932 ft 476 kts 124°
2026-05-09 13:44 42.77302 17.81441 30451 ft 473 kts 124°
2026-05-09 13:44 42.75488 17.85157 29963 ft 470 kts 124°
2026-05-09 13:44 42.73687 17.88843 29480 ft 465 kts 124°
2026-05-09 13:44 42.71901 17.92486 29049 ft 460 kts 124°
2026-05-09 13:45 42.70128 17.96087 28604 ft 456 kts 124°
2026-05-09 13:45 42.68372 17.99644 28170 ft 452 kts 124°
2026-05-09 13:45 42.66623 18.03178 27733 ft 449 kts 124°
2026-05-09 13:45 42.64890 18.06681 27284 ft 446 kts 124°
2026-05-09 13:46 42.63163 18.10171 26832 ft 444 kts 124°
2026-05-09 13:46 42.61444 18.13635 26376 ft 441 kts 124°
2026-05-09 13:46 42.59733 18.17079 25899 ft 439 kts 124°
2026-05-09 13:46 42.58030 18.20512 25422 ft 438 kts 124°
2026-05-09 13:47 42.56332 18.23935 24924 ft 436 kts 124°
2026-05-09 13:47 42.54639 18.27345 24415 ft 435 kts 124°
2026-05-09 13:47 42.52972 18.30699 23907 ft 434 kts 124°
2026-05-09 13:47 42.51283 18.34085 23365 ft 433 kts 124°
2026-05-09 13:48 42.49602 18.37453 22930 ft 428 kts 124°
2026-05-09 13:48 42.47939 18.40786 22418 ft 425 kts 124°
2026-05-09 13:48 42.46296 18.44072 22078 ft 418 kts 124°
2026-05-09 13:48 42.44671 18.47310 21618 ft 414 kts 124°
2026-05-09 13:49 42.43064 18.50518 21180 ft 410 kts 124°
2026-05-09 13:49 42.41475 18.53698 20739 ft 406 kts 124°
2026-05-09 13:49 42.39903 18.56842 20359 ft 401 kts 124°
2026-05-09 13:49 42.38356 18.59926 19761 ft 393 kts 124°
2026-05-09 13:50 42.36829 18.62955 19133 ft 385 kts 124°
2026-05-09 13:50 42.35335 18.65913 18587 ft 376 kts 124°
2026-05-09 13:50 42.33890 18.68776 18186 ft 362 kts 124°
2026-05-09 13:50 42.32496 18.71542 17770 ft 350 kts 124°
2026-05-09 13:51 42.31128 18.74250 17380 ft 348 kts 124°
2026-05-09 13:51 42.29765 18.76936 16963 ft 346 kts 124°
2026-05-09 13:51 42.28415 18.79615 16568 ft 344 kts 122°
2026-05-09 13:51 42.27312 18.82460 16188 ft 341 kts 115°
2026-05-09 13:52 42.26281 18.85336 15801 ft 340 kts 115°
2026-05-09 13:52 42.25248 18.88199 15422 ft 338 kts 115°
2026-05-09 13:52 42.24214 18.91048 15043 ft 338 kts 115°
2026-05-09 13:52 42.23178 18.93885 14664 ft 337 kts 116°
2026-05-09 13:53 42.22141 18.96719 14283 ft 336 kts 116°
2026-05-09 13:53 42.21075 18.99523 13891 ft 336 kts 121°
2026-05-09 13:53 42.19636 19.01989 13488 ft 334 kts 136°
2026-05-09 13:53 42.17851 19.03889 13141 ft 323 kts 147°
2026-05-09 13:54 42.15987 19.05531 12621 ft 316 kts 148°
2026-05-09 13:54 42.14164 19.07116 12197 ft 307 kts 148°
2026-05-09 13:54 42.12382 19.08660 11795 ft 305 kts 147°
2026-05-09 13:54 42.10577 19.10130 11501 ft 298 kts 156°
2026-05-09 13:55 42.08612 19.10723 11187 ft 287 kts 182°
2026-05-09 13:55 42.06699 19.10154 10935 ft 280 kts 207°
2026-05-09 13:55 42.05165 19.08628 10635 ft 274 kts 231°
2026-05-09 13:55 42.04215 19.06432 10201 ft 274 kts 251°
2026-05-09 13:56 42.03531 19.04049 9824 ft 272 kts 251°
2026-05-09 13:56 42.02852 19.01689 9234 ft 271 kts 251°
2026-05-09 13:56 42.02172 18.99344 8711 ft 266 kts 251°
2026-05-09 13:56 42.01733 18.96975 8185 ft 259 kts 272°
2026-05-09 13:57 42.02151 18.94659 7715 ft 256 kts 301°
2026-05-09 13:57 42.03330 18.92951 7328 ft 249 kts 329°
2026-05-09 13:57 42.04905 18.92010 6947 ft 248 kts 339°
2026-05-09 13:57 42.06527 18.91043 6546 ft 260 kts 338°
2026-05-09 13:58 42.08171 18.90148 6126 ft 250 kts 340°
2026-05-09 13:58 42.09807 18.89320 5727 ft 257 kts 340°
2026-05-09 13:58 42.11472 18.88480 5365 ft 251 kts 340°
2026-05-09 13:58 42.13085 18.87661 4936 ft 249 kts 340°
2026-05-09 13:59 42.14751 18.86815 4574 ft 254 kts 340°
2026-05-09 13:59 42.16371 18.85991 4124 ft 245 kts 340°
2026-05-09 13:59 42.17978 18.85174 3755 ft 253 kts 339°
2026-05-09 13:59 42.19583 18.84358 3408 ft 245 kts 339°
2026-05-09 14:00 42.21158 18.83556 2999 ft 237 kts 339°
2026-05-09 14:00 42.21670 18.83295 2985 ft 230 kts 339°
2026-05-09 14:00 42.23997 18.82110 2879 ft 205 kts 339°
2026-05-09 14:00 42.25295 18.81448 2824 ft 193 kts 339°
2026-05-09 14:01 42.26525 18.80832 2625 ft 186 kts 339°
2026-05-09 14:01 42.27714 18.80225 2433 ft 179 kts 339°
2026-05-09 14:01 42.28843 18.79679 2320 ft 165 kts 340°
2026-05-09 14:01 42.29862 18.79170 2245 ft 151 kts 339°
2026-05-09 14:02 42.30810 18.78669 2099 ft 139 kts 338°
2026-05-09 14:02 42.31695 18.78210 1933 ft 136 kts 339°
2026-05-09 14:02 42.32574 18.77769 1734 ft 134 kts 339°
2026-05-09 14:02 42.33436 18.77351 1542 ft 131 kts 339°
2026-05-09 14:03 42.34296 18.76950 1291 ft 131 kts 341°
2026-05-09 14:03 42.35152 18.76530 1073 ft 131 kts 339°
2026-05-09 14:03 42.36006 18.76088 905 ft 132 kts 339°
2026-05-09 14:03 42.36857 18.75604 731 ft 132 kts 337°
2026-05-09 14:04 42.37691 18.75096 524 ft 131 kts 334°
2026-05-09 14:04 42.38489 18.74509 316 ft 130 kts 327°
2026-05-09 14:04 42.39219 18.73788 143 ft 130 kts 318°
2026-05-09 14:04 42.39901 18.72989 20 ft 129 kts 318°
2026-05-09 14:05 42.40515 18.72270 3 ft 96 kts 319°
2026-05-09 14:05 42.40888 18.71831 5 ft 42 kts 319°
2026-05-09 14:05 42.40974 18.71826 8 ft 4 kts 47°
2026-05-09 14:07 42.40985 18.71840 7 ft 3 kts 43°
2026-05-09 14:07 42.41012 18.71851 8 ft 5 kts 357°
2026-05-09 14:07 42.41048 18.71817 7 ft 8 kts 319°
2026-05-09 14:08 42.41096 18.71760 6 ft 10 kts 319°
2026-05-09 14:08 42.41154 18.71695 7 ft 11 kts 319°
2026-05-09 14:08 42.41198 18.71657 8 ft 5 kts
2026-05-09 14:08 42.41215 18.71674 8 ft 2 kts 61°
2026-05-09 14:09 42.41214 18.71692 9 ft 2 kts 97°
2026-05-09 14:09 42.41209 18.71701 9 ft 1 kts 132°
2026-05-09 14:09 42.41204 18.71702 9 ft 0 kts 157°
2026-05-09 14:09 42.41198 18.71704 10 ft 1 kts 166°
2026-05-09 14:10 42.41194 18.71705 10 ft 0 kts 168°